Regional Weather Roundup
Issued by NWS

Home | Current Version | Previous Version | Text Only | Print | Product List | Glossary Off
Versions: 1 2 3 4 5 6 7 8 9 10 11 12 13 14 15 16 17 18 19 20 21 22 23 24 25 26 27 28 29 30 31 32 33 34 35 36 37 38 39 40 41 42 43 44 45 46 47 48 49 50

000
ASUS43 KIND 250509
RWRIN

WEATHER ROUNDUP FOR INDIANA
NATIONAL WEATHER SERVICE INDIANAPOLIS IN
100 AM EDT SAT APR 25 2015

NOTE: "FAIR" INDICATES FEW OR NO CLOUDS BELOW 12,000 FEET WITH NO
SIGNIFICANT WEATHER AND/OR OBSTRUCTIONS TO VISIBILITY.

* - STATION DOES NOT REPORT WEATHER SUCH AS PRECIPITATION OR FOG.

+ - STATION NOT QUALITY CONTROLLED BY THE NATIONAL WEATHER SERVICE.
    USE DATA WITH CAUTION...ESPECIALLY DEWPOINT AND RELATIVE
    HUMIDITY OBSERVATIONS.

INZ001>003-010>013-019-020-250600-
NORTHWEST INDIANA

CITY           SKY/WX    TMP DP  RH WIND       PRES   REMARKS
GARY /AIRPORT/ LGT RAIN  46  37  71 NE7       29.89R
KNOX *+        CLOUDY    45  28  53 NE8       29.90F
LA PORTE +     LGT RAIN  47  39  73 SE12G20   29.89F
MICHIGAN CITY+ LGT RAIN  43  36  75 E5        29.91R
MONTICELLO +   CLOUDY    53  33  48 E5        29.87F
RENSSELAER +   CLOUDY    50  37  62 E9        29.86F
VALPARAISO     RAIN      46  39  76 SE14      29.87F

$$

LMZ046-743>745-250600-
SOUTHERN LAKE MICHIGAN

STATION/POSITION TIME  TEMP    WIND        PRES    WAVE
                       AIR SEA DIR/SP/G            HT
                 (UTC) (F)     (DEG/KT/KT) (MB)    (FT)
BURNS HARBOR     0500   47      50/  8/ 15 1012.9R
MICHIGAN CITY    0500   45      40/ 11/ 13   N/A
5NW MICH CITY    0500   44 44   80/ 12/ 16   N/A     3

$$

INZ004-005-014>016-021>024-250600-
NORTH CENTRAL INDIANA

CITY           SKY/WX    TMP DP  RH WIND       PRES   REMARKS
GOSHEN         CLOUDY    47  36  65 E9        29.93F
LOGANSPORT +   CLOUDY    52  30  43 E7        29.89F
PERU/GRISSOM   CLOUDY    52  34  50 E6        29.88F
ROCHESTER +    CLOUDY    52  37  58 E5        29.90F
SOUTH BEND     LGT RAIN  45  39  79 E14G23    29.91F
WARSAW +       LGT RAIN  48  32  53 E7        29.93S

$$

INZ006>009-017-018-025>027-250600-
NORTHEAST INDIANA

CITY           SKY/WX    TMP DP  RH WIND       PRES   REMARKS
ANGOLA *+      CLOUDY    46  34  61 NE13      29.94F
AUBURN +       CLOUDY    46  34  61 NE8       29.95R
FORT WAYNE     CLOUDY    51  32  48 NE13      29.94R
HUNTINGTON +   CLOUDY    51  32  48 E3        29.92S

$$

INZ028-029-035-036-043>045-051>053-250600-
WEST CENTRAL INDIANA

CITY           SKY/WX    TMP DP  RH WIND       PRES   REMARKS
CRAWFORDSVL +  CLOUDY    51  31  45 NE5       29.85F
GREENCASTLE +  CLOUDY    54  28  37 E6        29.84F
LAFAYETTE      CLOUDY    52  38  58 E7        29.85F
TERRE HAUTE    CLOUDY    57  36  45 S7        29.83F

$$

INZ030>032-037>040-046>048-054>057-064-065-250600-
CENTRAL INDIANA

CITY           SKY/WX    TMP DP  RH WIND       PRES   REMARKS
CP ATTERBURY + DRIZZLE   54  39  58 CALM      29.87S
FISHERS *+     CLOUDY    52  37  58 E3        29.88S
FRANKFORT +    CLOUDY    53  37  54 E9        29.88F
GREENWOOD *+   CLOUDY    55  30  38 E3        29.88
INDIANAPOLIS   LGT RAIN  54  33  45 S7        29.86R
-EAGLE CREEK   CLOUDY    56  30  37 S7        29.87R
KOKOMO *+      CLOUDY    52  36  54 E7        29.89F
MARION +       CLOUDY    51  34  52 E5        29.90F
MT COMFORT *+  CLOUDY    54  28  37 E5        29.88S
SHELBYVILLE    CLOUDY    56  36  47 CALM      29.87F
ZIONSVILLE +   CLOUDY    51  39  63 E3        29.88S

$$

INZ033-034-041-042-049-050-058-059-250600-
EAST CENTRAL INDIANA

CITY           SKY/WX    TMP DP  RH WIND       PRES   REMARKS
MUNCIE         CLOUDY    52  34  50 E6        29.89F

$$

INZ060-061-067>069-081>083-085>088-250600-
SOUTHWEST INDIANA

CITY           SKY/WX    TMP DP  RH WIND       PRES   REMARKS
EVANSVILLE     CLOUDY    57  41  55 E7        29.82F
HUNTINGBURG *+ CLOUDY    52  45  76 E5        29.84F
WASHINGTON +   CLOUDY    53  46  77 SE6       29.83F

$$

INZ062-063-066-070>080-084-089>092-250600-
SOUTH CENTRAL AND SOUTHEAST INDIANA

CITY           SKY/WX    TMP DP  RH WIND       PRES   REMARKS
BEDFORD +      CLOUDY    57  34  41 S7        29.86F
BLOOMINGTON    CLOUDY    57  34  41 S7        29.84F
MADISON *+     CLOUDY    55  28  35 SE5       29.89R
NORTH VERNON + CLOUDY    55  28  35 SE3       29.88S
SEYMOUR +      CLOUDY    57  37  47 CALM      29.87R

$$



USA.gov is the U.S. government's official web portal to all federal, state and local government web resources and services.